| time (UTC) | temp C | wind direction | speed KPH | gust KPH | rain 1hr cm | rain 24hr cm | rain mn cm | humidity % | barometer mb |
| 20260507144552 | 13 | 0 | 0.0 | 0.0 | 0.00 | 0.00 | 0.00 | 46 | 1011.1 |
| 20260507143054 | 12 | 0 | 0.0 | 0.0 | 0.00 | 0.00 | 0.00 | 48 | 1011.3 |
| 20260507141604 | 11 | 0 | 0.0 | 0.0 | 0.00 | 0.00 | 0.00 | 51 | 1011.6 |
| 20260507140051 | 11 | 0 | 0.0 | 0.0 | 0.00 | 0.00 | 0.00 | 51 | 1011.8 |
| 20260507134556 | 10 | 0 | 0.0 | 0.0 | 0.00 | 0.03 | 0.00 | 55 | 1011.9 |
| 20260507133055 | 10 | 0 | 0.0 | 0.0 | 0.00 | 0.03 | 0.00 | 57 | 1011.9 |
| 20260507131601 | 8 | 0 | 0.0 | 0.0 | 0.00 | 0.03 | 0.00 | 59 | 1012.1 |
| 20260507130108 | 8 | 0 | 0.0 | 0.0 | 0.00 | 0.03 | 0.00 | 58 | 1012.3 |
| 20260507124555 | 8 | 0 | 0.0 | 0.0 | 0.00 | 0.05 | 0.00 | 65 | 1012.5 |
| 20260507123053 | 7 | 0 | 0.0 | 0.0 | 0.00 | 0.05 | 0.00 | 67 | 1012.5 |
| 20260507121601 | 6 | 0 | 0.0 | 0.0 | 0.00 | 0.05 | 0.00 | 76 | 1012.5 |
| 20260507120057 | 5 | 0 | 0.0 | 0.0 | 0.00 | 0.05 | 0.00 | 81 | 1012.4 |
| 20260507114604 | 4 | 0 | 0.0 | 0.0 | 0.00 | 0.18 | 0.00 | 85 | 1012.4 |
| 20260507113051 | 3 | 0 | 0.0 | 0.0 | 0.00 | 0.18 | 0.00 | 85 | 1012.0 |
| 20260507111545 | 3 | 0 | 0.0 | 0.0 | 0.00 | 0.18 | 0.00 | 85 | 1012.0 |
| 20260507104547 | 3 | 0 | 0.0 | 0.0 | 0.00 | 0.25 | 0.00 | 84 | 1011.7 |
| 20260507103054 | 4 | 0 | 0.0 | 0.0 | 0.00 | 0.25 | 0.00 | 81 | 1011.5 |
| 20260507101603 | 5 | 0 | 0.0 | 0.0 | 0.00 | 0.25 | 0.00 | 79 | 1011.4 |
| 20260507100054 | 5 | 0 | 0.0 | 0.0 | 0.00 | 0.25 | 0.00 | 79 | 1011.4 |
| 20260507094549 | 5 | 0 | 0.0 | 0.0 | 0.00 | 0.28 | 0.00 | 77 | 1011.4 |
| 20260507093056 | 6 | 0 | 0.0 | 0.0 | 0.00 | 0.28 | 0.00 | 75 | 1011.3 |
| 20260507091556 | 6 | 0 | 0.0 | 0.0 | 0.00 | 0.28 | 0.00 | 72 | 1011.4 |
| 20260507090054 | 6 | 0 | 0.0 | 0.0 | 0.00 | 0.28 | 0.00 | 71 | 1011.2 |
| 20260507084551 | 7 | 0 | 0.0 | 0.0 | 0.00 | 0.28 | 0.00 | 69 | 1011.2 |
| 20260507083051 | 7 | 0 | 0.0 | 0.0 | 0.00 | 0.28 | 0.00 | 64 | 1011.1 |
| 20260507081554 | 7 | 0 | 0.0 | 0.0 | 0.00 | 0.28 | 0.00 | 62 | 1011.3 |
| 20260507080053 | 8 | 0 | 0.0 | 0.0 | 0.00 | 0.28 | 0.00 | 61 | 1011.3 |
| 20260507074605 | 8 | 0 | 0.0 | 0.0 | 0.00 | 0.28 | 0.00 | 61 | 1011.4 |
| 20260507073054 | 8 | 0 | 0.0 | 0.0 | 0.00 | 0.28 | 0.00 | 60 | 1011.3 |
| 20260507071550 | 8 | 0 | 0.0 | 0.0 | 0.00 | 0.28 | 0.00 | 60 | 1011.3 |
| 20260507070053 | 8 | 0 | 0.0 | 0.0 | 0.00 | 0.28 | 0.00 | 59 | 1011.4 |
| 20260507064549 | 8 | 0 | 0.0 | 0.0 | 0.00 | 0.28 | 0.00 | 59 | 1011.5 |
| 20260507063053 | 8 | 0 | 0.0 | 0.0 | 0.00 | 0.28 | 0.00 | 57 | 1011.6 |
| 20260507061550 | 8 | 0 | 0.0 | 0.0 | 0.00 | 0.28 | 0.00 | 56 | 1011.6 |
| 20260507060053 | 9 | 0 | 0.0 | 0.0 | 0.00 | 0.28 | 0.00 | 57 | 1011.7 |
| 20260507054623 | 9 | 0 | 0.0 | 0.0 | 0.00 | 0.28 | 0.00 | 58 | 1011.7 |
| 20260507053052 | 9 | 0 | 0.0 | 0.0 | 0.00 | 0.28 | 0.00 | 58 | 1011.7 |
| 20260507051548 | 9 | 0 | 0.0 | 0.0 | 0.00 | 0.28 | 0.00 | 59 | 1011.8 |
| 20260507050057 | 9 | 0 | 0.0 | 0.0 | 0.00 | 0.28 | 0.00 | 62 | 1011.9 |
| 20260507044556 | 9 | 0 | 0.0 | 0.0 | 0.00 | 0.28 | 0.00 | 60 | 1011.9 |
| 20260507043056 | 10 | 0 | 0.0 | 0.0 | 0.00 | 0.28 | 0.00 | 59 | 1011.9 |
| 20260507041559 | 10 | 0 | 0.0 | 0.0 | 0.00 | 0.28 | 0.00 | 59 | 1012.0 |
| 20260507040050 | 10 | 0 | 0.0 | 0.0 | 0.00 | 0.28 | 0.00 | 63 | 1011.9 |
| 20260507034557 | 10 | 0 | 0.0 | 0.0 | 0.00 | 0.28 | 0.28 | 64 | 1011.5 |
| 20260507033056 | 10 | 0 | 0.0 | 0.0 | 0.00 | 0.28 | 0.28 | 64 | 1011.3 |
| 20260507031603 | 10 | 0 | 0.0 | 0.0 | 0.00 | 0.28 | 0.28 | 68 | 1011.4 |
| 20260507030055 | 10 | 0 | 0.0 | 0.0 | 0.00 | 0.28 | 0.28 | 69 | 1011.6 |
| 20260507024552 | 11 | 0 | 0.0 | 0.0 | 0.00 | 0.28 | 0.28 | 71 | 1011.3 |
| 20260507023102 | 11 | 0 | 0.0 | 0.0 | 0.00 | 0.28 | 0.28 | 71 | 1010.9 |
| 20260507021545 | 11 | 0 | 0.0 | 0.0 | 0.00 | 0.28 | 0.28 | 72 | 1010.5 |
| 20260507020049 | 11 | 0 | 0.0 | 0.0 | 0.00 | 0.28 | 0.28 | 75 | 1010.7 |
| 20260507014601 | 11 | 0 | 0.0 | 0.0 | 0.00 | 0.28 | 0.28 | 78 | 1010.4 |
| 20260507013050 | 11 | 0 | 0.0 | 0.0 | 0.00 | 0.28 | 0.28 | 76 | 1010.7 |
| 20260507011549 | 11 | 0 | 0.0 | 0.0 | 0.00 | 0.28 | 0.28 | 77 | 1010.9 |
| 20260507010049 | 11 | 0 | 0.0 | 0.0 | 0.00 | 0.28 | 0.28 | 78 | 1010.8 |
| 20260507004551 | 11 | 0 | 0.0 | 0.0 | 0.00 | 0.28 | 0.28 | 77 | 1011.3 |
| 20260507003050 | 11 | 0 | 0.0 | 1.6 | 0.00 | 0.28 | 0.28 | 76 | 1010.7 |
| 20260507001555 | 11 | 0 | 0.0 | 0.0 | 0.00 | 0.28 | 0.28 | 78 | 1010.9 |
| 20260507000052 | 11 | 0 | 0.0 | 0.0 | 0.00 | 0.28 | 0.28 | 78 | 1010.5 |
| 20260506234548 | 11 | 0 | 0.0 | 0.0 | 0.00 | 0.28 | 0.28 | 76 | 1010.2 |
| 20260506233109 | 11 | 0 | 0.0 | 0.0 | 0.00 | 0.28 | 0.28 | 78 | 1010.0 |
| 20260506231550 | 11 | 0 | 0.0 | 0.0 | 0.00 | 0.28 | 0.28 | 78 | 1009.6 |
| 20260506230051 | 11 | 0 | 0.0 | 0.0 | 0.00 | 0.28 | 0.28 | 79 | 1009.7 |
| 20260506224556 | 12 | 0 | 0.0 | 0.0 | 0.00 | 0.28 | 0.28 | 79 | 1009.7 |
| 20260506223049 | 12 | 0 | 0.0 | 0.0 | 0.00 | 0.28 | 0.28 | 79 | 1009.6 |
| 20260506221550 | 12 | 0 | 0.0 | 0.0 | 0.00 | 0.28 | 0.28 | 79 | 1009.2 |
| 20260506220048 | 12 | 0 | 0.0 | 0.0 | 0.00 | 0.28 | 0.28 | 80 | 1009.0 |
| 20260506214551 | 12 | 0 | 0.0 | 0.0 | 0.00 | 0.28 | 0.28 | 80 | 1009.0 |
| 20260506213110 | 12 | 0 | 0.0 | 0.0 | 0.00 | 0.28 | 0.28 | 80 | 1008.8 |
| 20260506211549 | 12 | 0 | 0.0 | 0.0 | 0.00 | 0.28 | 0.28 | 81 | 1008.6 |
| 20260506210055 | 12 | 0 | 0.0 | 0.0 | 0.00 | 0.28 | 0.28 | 83 | 1008.6 |
| 20260506204551 | 12 | 0 | 0.0 | 0.0 | 0.00 | 0.28 | 0.28 | 82 | 1008.2 |
| 20260506203049 | 12 | 0 | 0.0 | 0.0 | 0.00 | 0.28 | 0.28 | 83 | 1008.2 |
| 20260506201550 | 13 | 0 | 0.0 | 0.0 | 0.00 | 0.28 | 0.28 | 82 | 1008.2 |
| 20260506200051 | 13 | 0 | 0.0 | 0.0 | 0.00 | 0.28 | 0.28 | 81 | 1008.1 |
| 20260506194556 | 13 | 0 | 0.0 | 0.0 | 0.00 | 0.28 | 0.28 | 82 | 1008.0 |
| 20260506193055 | 13 | 0 | 0.0 | 0.0 | 0.00 | 0.28 | 0.28 | 83 | 1007.8 |
| 20260506191552 | 13 | 0 | 0.0 | 0.0 | 0.00 | 0.28 | 0.28 | 82 | 1007.7 |
| 20260506190050 | 15 | 0 | 0.0 | 0.0 | 0.00 | 0.28 | 0.28 | 82 | 1007.2 |
| 20260506184550 | 15 | 0 | 0.0 | 0.0 | 0.00 | 0.28 | 0.28 | 80 | 1007.2 |
| 20260506183049 | 16 | 0 | 0.0 | 0.0 | 0.00 | 0.28 | 0.28 | 79 | 1006.9 |
| 20260506181549 | 16 | 0 | 0.0 | 0.0 | 0.00 | 0.28 | 0.28 | 81 | 1006.7 |
| 20260506174547 | 15 | 0 | 0.0 | 0.0 | 0.00 | 0.28 | 0.28 | 83 | 1007.0 |
| 20260506173053 | 15 | 0 | 0.0 | 0.0 | 0.00 | 0.28 | 0.28 | 84 | 1006.7 |
| 20260506171558 | 15 | 0 | 0.0 | 0.0 | 0.00 | 0.28 | 0.28 | 85 | 1006.4 |
| 20260506170104 | 15 | 0 | 0.0 | 0.0 | 0.00 | 0.28 | 0.28 | 85 | 1006.2 |
| 20260506164547 | 15 | 0 | 0.0 | 0.0 | 0.00 | 0.28 | 0.28 | 85 | 1006.2 |
| 20260506163106 | 15 | 0 | 0.0 | 0.0 | 0.00 | 0.28 | 0.28 | 85 | 1006.2 |
| 20260506161550 | 15 | 0 | 0.0 | 0.0 | 0.00 | 0.28 | 0.28 | 85 | 1006.2 |
| 20260506160050 | 15 | 0 | 0.0 | 0.0 | 0.00 | 0.28 | 0.28 | 85 | 1006.1 |
| 20260506154610 | 15 | 0 | 0.0 | 0.0 | 0.00 | 0.28 | 0.28 | 85 | 1006.2 |
| 20260506153059 | 15 | 0 | 0.0 | 0.0 | 0.00 | 0.28 | 0.28 | 85 | 1006.1 |
| 20260506151555 | 15 | 0 | 0.0 | 0.0 | 0.00 | 0.28 | 0.28 | 85 | 1005.9 |
| 20260506150050 | 15 | 0 | 0.0 | 0.0 | 0.00 | 0.28 | 0.28 | 85 | 1005.6 |